PDT,Max TemperatureF,Mean TemperatureF,Min TemperatureF,Max Dew PointF,MeanDew PointF,Min DewpointF,Max Humidity, Mean Humidity, Min Humidity, Max Sea Level PressureIn, Mean Sea Level PressureIn, Min Sea Level PressureIn, Max VisibilityMiles, Mean VisibilityMiles, Min VisibilityMiles, Max Wind SpeedMPH, Mean Wind SpeedMPH, Max Gust SpeedMPH,PrecipitationIn, CloudCover, Events, WindDirDegrees
2012-10-1,95,73,51,50,44,32,76,42,11,30.01,29.93,29.85,10,10,7,10,3,,0.00,0,,115
2012-10-2,96,74,53,50,42,36,72,36,12,29.89,29.82,29.75,10,10,10,10,4,,0.00,0,,101
2012-10-3,95,74,53,48,40,34,63,29,13,29.88,29.83,29.78,10,10,10,13,5,,0.00,0,,166
2012-10-4,78,68,59,52,49,46,77,53,32,30.06,29.99,29.88,10,10,10,17,13,23,0.00,0,,149
2012-10-5,78,66,55,52,49,45,82,59,30,30.12,30.06,30.02,10,10,10,16,11,17,0.00,0,,154
2012-10-6,75,60,46,52,48,45,94,63,36,30.05,30.00,29.93,10,10,10,8,4,,0.00,0,,155
2012-10-7,78,62,46,50,47,43,93,57,32,29.99,29.94,29.88,10,10,10,9,4,,0.00,0,,169
2012-10-8,75,64,53,48,45,39,77,54,29,30.00,29.97,29.94,10,10,10,12,8,9,0.00,0,,160
2012-10-9,75,60,44,50,45,41,93,59,31,30.03,29.97,29.91,10,10,10,10,4,,0.00,0,,112
2012-10-10,78,62,46,46,43,39,87,50,26,29.94,29.88,29.82,10,10,10,9,2,,0.00,0,,178
2012-10-11,68,60,51,50,49,46,94,69,49,29.96,29.87,29.83,10,10,10,22,10,23,0.00,1,,157
2012-10-12,64,60,55,48,47,46,77,65,52,30.21,30.06,29.95,10,10,10,8,5,,0.00,7,,157
2012-10-13,73,58,44,48,45,41,93,64,36,30.30,30.22,30.14,10,10,10,9,3,,0.00,0,,337
2012-10-14,78,62,46,52,49,43,87,62,32,30.21,30.13,30.04,10,10,7,8,4,,0.00,0,,51
2012-10-15,82,66,51,52,50,46,88,60,30,30.08,30.00,29.91,10,10,10,10,3,,0.00,0,,343
2012-10-16,87,71,55,55,51,43,77,51,27,29.96,29.90,29.83,10,10,10,10,5,,0.00,0,,322
2012-10-17,84,66,48,45,35,28,55,34,14,29.92,29.86,29.81,10,10,7,14,7,,0.00,0,,357
2012-10-18,87,69,51,46,44,39,72,44,22,29.99,29.94,29.88,10,10,10,12,4,,0.00,0,,170
2012-10-19,80,68,57,59,52,43,83,57,28,30.03,29.95,29.86,10,10,10,13,8,,0.00,0,,156
2012-10-20,73,63,53,54,51,46,88,65,44,29.86,29.81,29.73,10,10,10,14,7,17,0.00,0,,159
2012-10-21,66,60,53,46,40,28,72,53,26,29.89,29.83,29.78,10,10,10,17,9,17,0.00,1,,153
2012-10-22,59,54,50,50,47,41,94,80,58,29.92,29.83,29.76,10,9,2,25,14,30,0.54,8,,160
2012-10-23,62,53,44,48,43,36,88,69,37,30.05,30.00,29.91,10,10,10,16,9,21,0.00,3,,158
2012-10-24,62,55,48,46,45,41,87,70,45,30.19,30.10,30.01,10,10,10,15,7,18,0.03,7,,143
2012-10-25,66,56,46,48,44,39,82,64,40,30.28,30.22,30.19,10,10,10,18,6,22,0.00,3,,340
2012-10-26,69,54,39,45,39,32,93,64,27,30.22,30.16,30.08,10,9,1,10,3,,0.00,0,,337
2012-10-27,77,60,42,52,46,43,100,68,34,30.08,30.01,29.93,10,10,5,7,1,,0.00,0,,115
2012-10-28,77,62,48,52,48,45,94,65,34,30.01,29.97,29.93,10,10,3,8,4,,0.00,0,,72
2012-10-29,77,62,48,50,48,45,94,65,36,30.11,30.05,30.00,10,9,2,7,4,,0.00,0,,40
2012-10-30,77,62,46,54,48,43,93,68,32,30.07,30.00,29.93,10,10,10,7,3,,0.00,0,,129
2012-10-31,64,58,53,55,52,50,100,79,59,30.01,29.97,29.93,10,10,7,13,8,16,0.08,4,,146